Weather History for Hebron, NE

Change the Weather History Date:

Thursday, March 15, 2012

  Actual Average Record
Temperature  
Mean Temperature 60 °F -  
Max Temperature 76 °F 53 °F 79 °F (2013)
Min Temperature 43 °F 28 °F -2 °F (1949)
Degree Days  
Heating Degree Days 6    
Growing Degree Days 10 (Base 50)    
Moisture  
Dew Point 53 °F    
Average Humidity 73    
Maximum Humidity 99    
Minimum Humidity 51    
Precipitation  
Precipitation 0.00 in - - ()
Sea Level Pressure  
Sea Level Pressure 29.95 in    
Wind  
Wind Speed 3 mph (South)    
Max Wind Speed 13 mph    
Max Gust Speed 16 mph    
Visibility 8 miles    
Events Fog    
Averages and records for this station are not official NWS values.
T = Trace of Precipitation, MM = Missing Value Source: NWS Daily Summary

Daily Weather History Graph

Daily Weather History Graph

Search for Another Location

Airport:

Trip Planner

Search our weather history database for the weather conditions in past years. The results will help you decide how hot, cold, wet, or windy it might be!

Date:

Astronomy

Mar. 15, 2012 Rise Set
Actual Time 7:41 AM CDT 7:37 PM CDT
Civil Twilight 7:13 AM CDT 8:04 PM CDT
Nautical Twilight 6:42 AM CDT 8:36 PM CDT
Astronomical Twilight 6:10 AM CDT 9:08 PM CDT
Moon 3:10 AM CDT (3/15) 12:56 PM CDT (3/15)
Length of Visible Light 12h 50m
Length of Day
11h 56m
Last Quarter, 43% of the Moon is Illuminated
Mar 15
Last Quarter
Mar 22
New
Mar 30
First Quarter
Apr 6
Full
Apr 13
Last Quarter

Hourly Weather History & Observations

Time (CDT) Temp. Dew Point Humidity Pressure Visibility Wind Dir Wind Speed Gust Speed Precip Events Conditions
12:15 AM 49.6 °F 38.5 °F 65% 29.95 in 10.0 mi Calm Calm - N/A   Clear
12:35 AM 49.1 °F 38.3 °F 66% 29.95 in 10.0 mi Calm Calm - N/A   Clear
12:55 AM 51.8 °F 37.9 °F 59% 29.95 in 10.0 mi Calm Calm - N/A   Clear
1:15 AM 49.1 °F 38.1 °F 66% 29.95 in 10.0 mi Calm Calm - N/A   Clear
1:35 AM 49.6 °F 38.1 °F 65% 29.95 in 10.0 mi Calm Calm - N/A   Clear
1:55 AM 48.2 °F 38.3 °F 69% 29.95 in 10.0 mi Calm Calm - N/A   Clear
2:15 AM 46.6 °F 38.3 °F 73% 29.95 in 10.0 mi Calm Calm - N/A   Clear
2:35 AM 45.7 °F 38.8 °F 77% 29.96 in 10.0 mi Calm Calm - N/A   Clear
2:55 AM 44.8 °F 38.5 °F 79% 29.96 in 10.0 mi Calm Calm - N/A   Clear
3:15 AM 45.5 °F 38.3 °F 76% 29.95 in 10.0 mi Calm Calm - N/A   Clear
3:35 AM 48.2 °F 38.5 °F 69% 29.95 in 10.0 mi Calm Calm - N/A   Clear
3:55 AM 48.7 °F 38.5 °F 68% 29.94 in 10.0 mi Calm Calm - N/A   Clear
4:15 AM 43.7 °F 38.3 °F 81% 29.94 in 10.0 mi Calm Calm - N/A   Clear
4:35 AM 44.8 °F 38.7 °F 79% 29.93 in 10.0 mi Calm Calm - N/A   Clear
4:55 AM 43.0 °F 38.3 °F 84% 29.93 in 10.0 mi Calm Calm - N/A   Clear
5:15 AM 50.4 °F 49.5 °F 97% 29.94 in 2.5 mi South 3.5 mph - N/A   Mostly Cloudy
5:35 AM 52.3 °F 51.8 °F 98% 29.93 in 0.2 mi South 3.5 mph - N/A Fog Fog
5:55 AM 56.7 °F 56.3 °F 99% 29.93 in 0.2 mi South 5.8 mph - N/A Fog Fog
6:15 AM 58.5 °F 58.1 °F 99% 29.94 in 1.8 mi SSW 8.1 mph - N/A   Overcast
6:35 AM 60.4 °F 60.1 °F 99% 29.94 in 3.0 mi SSW 9.2 mph 16.1 mph N/A   Overcast
6:55 AM 60.8 °F 60.4 °F 99% 29.94 in 4.0 mi SSW 9.2 mph 16.1 mph N/A   Overcast
7:15 AM 60.8 °F 60.1 °F 97% 29.95 in 3.0 mi SSW 6.9 mph - N/A   Overcast
7:35 AM 59.4 °F 58.8 °F 98% 29.95 in 2.0 mi South 4.6 mph - N/A   Overcast
7:55 AM 59.9 °F 59.2 °F 97% 29.95 in 4.0 mi South 4.6 mph - N/A   Overcast
8:15 AM 61.2 °F 60.1 °F 96% 29.95 in 5.0 mi South 5.8 mph - N/A   Overcast
8:35 AM 61.5 °F 59.9 °F 94% 29.96 in 5.0 mi Calm Calm - N/A   Mostly Cloudy
8:55 AM 62.1 °F 60.3 °F 94% 29.97 in 5.0 mi Calm Calm - N/A   Clear
9:15 AM 63.3 °F 60.8 °F 91% 29.97 in 7.0 mi SE 3.5 mph - N/A   Clear
9:35 AM 64.0 °F 60.8 °F 89% 29.99 in 7.0 mi Calm Calm - N/A   Mostly Cloudy
9:55 AM 64.6 °F 61.0 °F 88% 30.00 in 7.0 mi Calm Calm - N/A   Overcast
10:15 AM 64.8 °F 61.0 °F 88% 30.00 in 7.0 mi Calm Calm - N/A   Overcast
10:35 AM 65.5 °F 61.3 °F 86% 30.00 in 7.0 mi South 4.6 mph - N/A   Overcast
10:55 AM 66.0 °F 61.2 °F 84% 30.00 in 10.0 mi SSE 5.8 mph - N/A   Overcast
11:15 AM 67.1 °F 61.5 °F 82% 29.99 in 10.0 mi SE 6.9 mph - N/A   Overcast
11:35 AM 68.2 °F 61.2 °F 78% 30.00 in 10.0 mi South 5.8 mph - N/A   Overcast
11:55 AM 69.3 °F 61.0 °F 75% 29.99 in 10.0 mi South 5.8 mph - N/A   Overcast
12:15 PM 70.3 °F 60.4 °F 71% 29.99 in 10.0 mi SSW 6.9 mph - N/A   Overcast
12:35 PM 71.4 °F 59.7 °F 66% 29.98 in 10.0 mi South 5.8 mph - N/A   Overcast
1:15 PM 72.5 °F 59.2 °F 63% 29.97 in 10.0 mi SSE 4.6 mph - N/A   Overcast
1:35 PM 74.7 °F 57.9 °F 56% 29.97 in 10.0 mi South 8.1 mph - N/A   Mostly Cloudy
1:55 PM 74.8 °F 57.6 °F 55% 29.96 in 10.0 mi South 10.4 mph - N/A   Scattered Clouds
2:15 PM 72.9 °F 57.9 °F 59% 29.96 in 10.0 mi South 5.8 mph - N/A   Mostly Cloudy
2:35 PM 74.8 °F 57.7 °F 55% 29.95 in 10.0 mi SE 6.9 mph - N/A   Scattered Clouds
2:55 PM 75.6 °F 57.6 °F 53% 29.93 in 10.0 mi SE 11.5 mph - N/A   Mostly Cloudy
3:15 PM 74.7 °F 57.4 °F 55% 29.93 in 10.0 mi Calm Calm - N/A   Mostly Cloudy
3:35 PM 76.8 °F 57.2 °F 51% 29.93 in 10.0 mi South 11.5 mph - N/A   Scattered Clouds
3:55 PM 75.9 °F 57.9 °F 54% 29.93 in 10.0 mi South 12.7 mph 16.1 mph N/A   Scattered Clouds
4:15 PM 74.8 °F 57.6 °F 55% 29.92 in 10.0 mi SE 9.2 mph - N/A   Scattered Clouds
4:35 PM 74.7 °F 57.4 °F 55% 29.92 in 10.0 mi SE 4.6 mph - N/A   Scattered Clouds
4:55 PM 74.5 °F 56.7 °F 54% 29.92 in 10.0 mi SW 3.5 mph - N/A   Mostly Cloudy
5:15 PM 74.7 °F 57.0 °F 54% 29.92 in 10.0 mi SSW 4.6 mph - N/A   Overcast
5:35 PM 75.0 °F 56.1 °F 52% 29.91 in 10.0 mi South 5.8 mph - N/A   Mostly Cloudy
5:55 PM 74.1 °F 56.1 °F 53% 29.91 in 10.0 mi South 5.8 mph - N/A   Scattered Clouds
6:15 PM 74.1 °F 56.3 °F 54% 29.91 in 10.0 mi SSE 4.6 mph - N/A   Clear
6:35 PM 74.7 °F 55.8 °F 52% 29.91 in 10.0 mi South 5.8 mph - N/A   Mostly Cloudy
6:55 PM 72.7 °F 55.2 °F 54% 29.92 in 10.0 mi SSW 3.5 mph - N/A   Scattered Clouds
7:15 PM 70.5 °F 54.5 °F 57% 29.92 in 10.0 mi SSW 3.5 mph - N/A   Clear
7:35 PM 68.4 °F 54.1 °F 60% 29.93 in 10.0 mi SSW 4.6 mph - N/A   Clear
7:55 PM 67.1 °F 53.8 °F 62% 29.93 in 10.0 mi SW 4.6 mph - N/A   Clear
8:15 PM 65.3 °F 53.8 °F 66% 29.93 in 10.0 mi Calm Calm - N/A   Clear
8:35 PM 60.3 °F 52.2 °F 75% 29.94 in 10.0 mi Calm Calm - N/A   Clear
8:55 PM 61.9 °F 53.2 °F 73% 29.94 in 10.0 mi Calm Calm - N/A   Scattered Clouds
9:15 PM 59.5 °F 52.7 °F 78% 29.94 in 10.0 mi Calm Calm - N/A   Clear
9:35 PM 60.3 °F 52.0 °F 74% 29.95 in 10.0 mi Calm Calm - N/A   Scattered Clouds
9:55 PM 58.5 °F 52.9 °F 82% 29.95 in 10.0 mi Calm Calm - N/A   Scattered Clouds
10:15 PM 56.8 °F 51.6 °F 83% 29.96 in 10.0 mi Calm Calm - N/A   Clear
10:35 PM 55.9 °F 51.8 °F 86% 29.96 in 10.0 mi Calm Calm - N/A   Clear
10:55 PM 54.3 °F 51.1 °F 89% 29.95 in 10.0 mi Calm Calm - N/A   Clear
11:15 PM 54.3 °F 50.7 °F 88% 29.95 in 10.0 mi Calm Calm - N/A   Clear
11:35 PM 53.6 °F 50.9 °F 91% 29.95 in 7.0 mi Calm Calm - N/A   Clear
11:55 PM 53.6 °F 51.3 °F 92% 29.95 in 7.0 mi Calm Calm - N/A   Clear